Погода Баку

Погода Баку : погода сейчас, прогноз погоды и архив. Всё, что Вы хотите узнать о погоде Баку!

Поиск расширенной информации на нашем сайте:

Другие новости

Новости СМИ2

Главная страница сайта

Новости сайта

02.10.2013

Напоминаем, что на нашем новом сайте вы можете получить высокодетализированные прогнозы погоды по пунктам России, СНГ и мира (включающие важные для авиации метеовеличины, такие как направление и скорость ветра, видимость, явления погоды, количество и форма облачности, нижняя и верхняя граница облачности), а также ознакомиться с разнообразными материалами по авиационной метеорологии и подборкой полезных ссылок на эту тему.

Сайт Метеоцентр.Азия посвящён разработке технологий оптимизации авиаметеорологического обслуживания, включая проектирование и перспективное создание нескольких автоматизированных авиаметеорологических систем:
- система выпуска высокодетальных прогностических карт явлений погоды для нижнего воздушного пространства по России и ближнему зарубежью;
- система верификации прогнозов TAF (выпускаемых синоптиками официальных АМСГ РФ и ближнего зарубежья) и AUTOTAF (выпускаемых сайтом Метеоцентр.Азия) - выявление ошибок, онлайн-сопоставление с фактической погодой METAR, автоматическое внесение коррективов в прогнозы при резком отклонении фактической погоды от прогноза, подсчёт оправдываемости прогнозов по элементам и в целом;
- система обработки, анализа и отображения авиаметеорологической информации для применения провайдерами метеорологической информации.

Рекомендуем: Прямо из Китая капсулы kang xin - дешево!

Погода Баку - сегодня

Время (UTC), дата Ветер
(°,м/с) 
Видим.   Явления Облачность Т
(°С)
Тd
(°С)
f(%) Тe
(°С)
Pmin
(гПа)
dP
(гПа)
Po
(мм)
O2
(г/м3)
Тmin Tmax R s Состояние
почвы
06 27.03.17 030 (СВ) 2000 м  дымка{туман}  10/10 300 м 
[St]
+6.7 +5.6 93 +7  1014.6  0.5  756  296  +6        сухая 
09 27.03.17 190 (Ю) 20000 м    6/0 средняя 
[Ac cast]
+15.2 +8.2 63 +15  1011.4  -2.8  753  286           
12 27.03.17 240 (ЮЗ) 20000 м    4/0 верхняя 
[Ci sp]
+24.4 +8.9 37 +24  1009.7  -1.5  752  277           
15 27.03.17 350 (С) 4000 м    10/10 300 м 
[St]
+7.1 +5.3 88 +5  1014.3  755  296           
18 27.03.17 340 (С) 8-14{18}  20000 м    10/10 600 м кучево-дожд. 
[Cb cap]
+6.9 +4.4 84 +4  1015  0.7  756  296    +25.1       
21 27.03.17 330 (СЗ) 6{16}  20000 м    10/10 600 м кучево-дожд. 
[Cb cap]
+6.6 +4.8 88 +4  1014.7  -0.3  756  296           
00 28.03.17 340 (С) 20000 м    8/8 600 м кучево-дожд. 
[Cb cap]
+6.3 +4.7 89 +4  1014.1  -0.6  755  297           
03 28.03.17 020 (С) 20000 м    4/0 верхняя 
[Ci sp]
+6 +4.6 91 +4  1015.4  1.3  756  297           
06 28.03.17 350 (С) 20000 м    9/9 300 м кучево-дожд. 
[Cb cap]
+8.5 +5.5 81 +7  1017.4  2.1  758  295           
09 28.03.17 340 (С) 8-14{18}  20000 м    10/10 300 м кучево-дожд. 
[Cb cap]
+7.3 +4.8 84 +5  1019.9  2.4  759  297           
12 28.03.17 350 (С) 20000 м    10/0 средняя 
[Ac As]
+9 +2.7 65 +8  1020.3  0.5  760  296           
15 28.03.17 250 (З) 20000 м    10/10 300 м кучево-дожд. 
[Cb cap]
+8.4 +2.5 66 +8  1019.7  -0.6  759  297           
18 28.03.17 160 (Ю) 20000 м    8/8 300 м кучево-дожд. 
[Cb cap]
+8.4 +5 79 +8  1018.6  -1.1  759  296    +9.6       
21 28.03.17 190 (Ю) 8-15{18}  20000 м    ясно 
+7.7 +4.8 82 +5  1016.9  -1.8  757  296           
00 29.03.17 200 (Ю) 10-17{20}  20000 м    ясно 
+8 +3.2 72 +5  1013.1  -3.8  754  295           
03 29.03.17 320 (СЗ) 20000 м    3/0 верхняя 
[Cc]
+7.9 +2.5 69 +5  1014.9  1.8  756  296           
06 29.03.17 270 (З) 20000 м    ясно 
+12.1 +2.1 50 +12  1018.6  3.8  758  292  +7.4        сухая 
09 29.03.17 340 (С) 20000 м    ясно 
+16.9 +4.6 44 +17  1018.6  0.2  759  287           
12 29.03.17 350 (С) 20000 м    ясно 
+15.9 +8.6 62 +16  1019.1  0.5  759  288           
15 29.03.17 350 (С) 20000 м    ясно 
+12.4 +7 70 +12  1022.4  3.2  762  292           
18 29.03.17 350 (С) 20000 м    ясно 
+9.1 +5.8 80 +9  1025.7  3.2  764  297    +17.5       
21 29.03.17 тихо ()   20000 м    ясно 
+6.5 +4.4 86 +7  1027.5  1.6  765  300           
00 30.03.17 тихо ()   20000 м    ясно 
+6.5 +2.9 78 +7  1027.5  765  301           
03 30.03.17 тихо ()   20000 м    ясно 
+7.9 +5.9 87 +8  1027.4  765  299           
06 30.03.17 140 (ЮВ) 20000 м    ясно 
+11 +4.6 65 +10  1026.9  -0.4  765  296           
Время (UTC), дата Ветер
(°,м/с) 
Видим.   Явления Облачность Т
(°С)
Тd
(°С)
f(%) Тe
(°С)
Pmin
(гПа)
dP
(гПа)
Po
(мм)
O2
(г/м3)
Тmin Tmax R s Состояние
почвы

Для получения пояснительной информации подведите курсор к названию столбца.

ПОГОДА Баку - архив

Всё, что Вы хотите узнать о погоде Баку - удобно и подробно!

Выберите нужную дату (начиная с 1 января 2015* года) и нажмите кнопку "Найти".
Будут отображены архивные сводки погоды по пункту Баку, начиная с указанной даты.


Отображать данные в формате CSV (для использования в таблицах Excel)


Внимание! Наш архив погоды предназначен исключительно для личного некоммерческого использования в познавательных целях. Если Вам необходимы официальные справки о состоянии погоды (для производственных, юридических, коммерческих и т.п. целей), обращайтесь в органы Росгидромета.

*Примечание: данная дата относится к архиву по метеостанциям СССР (Россия, СНГ, Балтия).
Архив по метеостанциям Зарубежной Европы и Азии (кроме Китая) хранится 10 дней, по другим регионам земного шара (Китай, Африка, Америка, Австралия, Океания) - 1 день.

Баку - район местоположения метеостанции


Название, широта, долгота, высота метеостанции:
Баку (Дендропарк) 40.4°ш. 49.8°д. 61 м над ур. моря [Азербайджан]

Дополнительная информация

В oтличие oт бoльшинства пoгoдных сайтoв мы публикуем пoдрoбную метеoинфoрмацию в детальнoм прoфессиoнальнoм фoрмате.

Характеристики температуры и влажнoсти вoздуха измеряются на высoте 2 м в тени вдали oт зданий и деревьев.
Скoрoсть ветра измеряется на высoте 10 м (на урoвне рoста челoвека скoрoсть ветра ниже в 1.5-2 раза). Если метеoстанция нахoдится в гoрoде или в лесу, тo скoрoсть ветра занижена на 2-4 м/с пo сравнению с oткрытым местoм. Скoрoсть ветра над акватoриями крупных рек и oзёр, а также на вершинах хoлмoв на 2-5 м/с выше, чем в oбычных услoвиях.
Атмoсфернoе давление в разных тoчках местнoсти мoжет значительнo oтличаться oт давления на метеoстанции, в зависимoсти oт услoвий рельефа (при пoдъёме на 10 м давление пoнижается примернo на 1 мм рт.ст.).